KG0HG Weather Reports


Display with metric or nautical units.
time (UTC)temp
F
wind
direction
speed
MPH
gust
MPH
rain 1hr
in
rain 24hr
in
rain mn
in
humidity
%
barometer
mb
20260904213709 97 165 0.0 1.0 0.00 0.00 0.00 48 1012.8
20260904213206 96 169 2.0 3.0 0.00 0.00 0.00 47 1013.0
20260904212700 97 164 3.0 3.0 0.00 0.00 0.00 47 1012.9
20260904212155 97 165 2.0 3.0 0.00 0.00 0.00 47 1012.9
20260904211655 97 165 2.0 5.0 0.00 0.00 0.00 48 1012.9
20260904211151 97 165 1.0 5.0 0.00 0.00 0.00 48 1013.0
20260904210651 97 168 2.0 6.0 0.00 0.00 0.00 49 1013.0
20260904210146 96 169 2.0 3.0 0.00 0.00 0.00 50 1013.1
20260904205642 96 177 0.0 2.0 0.00 0.00 0.00 49 1013.0
20260904205138 96 162 2.0 5.0 0.00 0.00 0.00 49 1013.1
20260904204634 96 164 3.0 5.0 0.00 0.00 0.00 50 1013.3
20260904204130 96 165 4.0 5.0 0.00 0.00 0.00 49 1013.4
20260904203626 97 166 3.0 3.0 0.00 0.00 0.00 48 1013.3
20260904203122 97 167 1.0 3.0 0.00 0.00 0.00 48 1013.3
20260904202618 97 171 0.0 7.0 0.00 0.00 0.00 49 1013.4
20260904202114 96 165 3.0 3.0 0.00 0.00 0.00 50 1013.5
20260904201614 96 166 3.0 6.0 0.00 0.00 0.00 49 1013.4
20260904201109 96 164 1.0 3.0 0.00 0.00 0.00 51 1013.7
20260904200608 96 169 5.0 7.0 0.00 0.00 0.00 50 1013.6
20260904195601 95 164 3.0 3.0 0.00 0.00 0.00 51 1013.8
20260904195055 95 163 3.0 7.0 0.00 0.00 0.00 51 1013.7
20260904194550 96 177 3.0 6.0 0.00 0.00 0.00 50 1013.6
20260904194045 95 168 0.0 3.0 0.00 0.00 0.00 51 1013.9
20260904193539 95 169 1.0 2.0 0.00 0.00 0.00 52 1013.7
20260904193036 95 169 2.0 2.0 0.00 0.00 0.00 51 1013.8
20260904192535 95 160 2.0 3.0 0.00 0.00 0.00 52 1013.7
20260904192031 95 151 3.0 8.0 0.00 0.00 0.00 53 1014.0
20260904191528 95 170 1.0 6.0 0.00 0.00 0.00 50 1014.1
20260904191024 93 177 5.0 6.0 0.00 0.00 0.00 51 1013.9
20260904190519 94 175 6.0 7.0 0.00 0.00 0.00 51 1014.1
20260904190016 93 176 2.0 3.0 0.00 0.00 0.00 52 1014.0
20260904185512 93 165 3.0 8.0 0.00 0.00 0.00 52 1014.1
20260904185007 93 162 2.0 3.0 0.00 0.00 0.00 53 1014.3
20260904184506 93 162 3.0 3.0 0.00 0.00 0.00 54 1014.2
20260904183956 93 167 8.0 13.0 0.00 0.00 0.00 52 1014.0
20260904183450 93 171 4.0 6.0 0.00 0.00 0.00 54 1014.3
20260904182940 93 166 1.0 6.0 0.00 0.00 0.00 53 1014.1
20260904182435 93 167 3.0 8.0 0.00 0.00 0.00 53 1014.3
20260904181930 93 195 1.0 5.0 0.00 0.00 0.00 54 1014.4
20260904181425 92 178 3.0 6.0 0.00 0.00 0.00 53 1014.3
20260904180920 92 181 3.0 7.0 0.00 0.00 0.00 54 1014.6
20260904180410 92 200 2.0 3.0 0.00 0.00 0.00 55 1014.5
20260904175909 92 166 1.0 6.0 0.00 0.00 0.00 55 1014.6
20260904175409 91 168 1.0 6.0 0.00 0.00 0.00 55 1014.7
20260904174908 91 50 2.0 8.0 0.00 0.00 0.00 55 1014.6
20260904174404 91 177 4.0 6.0 0.00 0.00 0.00 56 1014.5
20260904173900 91 165 6.0 7.0 0.00 0.00 0.00 55 1014.4
20260904173355 90 160 2.0 3.0 0.00 0.00 0.00 56 1014.8
20260904172851 90 165 2.0 7.0 0.00 0.00 0.00 56 1014.8
20260904172350 90 170 4.0 6.0 0.00 0.00 0.00 56 1014.8
20260904171845 91 247 5.0 7.0 0.00 0.00 0.00 57 1015.0
20260904171340 90 168 7.0 7.0 0.00 0.00 0.00 57 1015.0
20260904170837 90 163 5.0 7.0 0.00 0.00 0.00 57 1015.0
20260904170331 89 163 5.0 6.0 0.00 0.00 0.00 58 1015.0
20260904165826 91 162 0.0 5.0 0.00 0.00 0.00 60 1015.0
20260904165319 90 168 4.0 7.0 0.00 0.00 0.00 60 1015.1
20260904164815 89 154 3.0 6.0 0.00 0.00 0.00 60 1015.3
20260904164309 90 149 2.0 5.0 0.00 0.00 0.00 62 1015.3
20260904163805 89 168 3.0 7.0 0.00 0.00 0.00 62 1015.2
20260904163300 89 170 3.0 6.0 0.00 0.00 0.00 62 1014.9
20260904162800 89 173 3.0 5.0 0.00 0.00 0.00 64 1015.2
20260904162300 89 171 1.0 9.0 0.00 0.00 0.00 63 1015.4
20260904161755 88 165 2.0 7.0 0.00 0.00 0.00 63 1015.1
20260904161250 88 155 2.0 6.0 0.00 0.00 0.00 64 1015.1
20260904160746 88 186 5.0 6.0 0.00 0.00 0.00 64 1015.3
20260904160241 87 170 3.0 6.0 0.00 0.00 0.00 65 1015.3
20260904155741 88 165 2.0 6.0 0.00 0.00 0.00 65 1015.3
20260904155235 87 163 1.0 3.0 0.00 0.00 0.00 66 1015.4
20260904154733 87 169 3.0 6.0 0.00 0.00 0.00 67 1015.2
20260904154228 87 167 2.0 6.0 0.00 0.00 0.00 67 1015.4
20260904153724 86 183 2.0 7.0 0.00 0.00 0.00 67 1015.3
20260904153220 86 172 2.0 6.0 0.00 0.00 0.00 68 1015.3
20260904152716 86 173 0.0 7.0 0.00 0.00 0.00 68 1015.3
20260904152215 86 164 2.0 3.0 0.00 0.00 0.00 67 1015.2
20260904151710 85 164 1.0 3.0 0.00 0.00 0.00 69 1015.3
20260904151209 85 164 1.0 3.0 0.00 0.00 0.00 69 1015.1
20260904150705 84 164 2.0 5.0 0.00 0.00 0.00 69 1015.1
20260904150200 84 168 2.0 3.0 0.00 0.00 0.00 69 1015.4
20260904145659 84 168 3.0 5.0 0.00 0.00 0.00 70 1015.5
20260904145154 84 167 1.0 2.0 0.00 0.00 0.00 71 1015.4
20260904144650 84 167 2.0 5.0 0.00 0.00 0.00 71 1015.3
20260904144145 83 169 0.0 2.0 0.00 0.00 0.00 72 1015.2
20260904143641 83 170 3.0 5.0 0.00 0.00 0.00 72 1015.0
20260904143137 83 164 2.0 3.0 0.00 0.00 0.00 72 1015.5
20260904142634 82 162 2.0 2.0 0.00 0.00 0.00 73 1015.3
20260904142129 82 162 0.0 6.0 0.00 0.00 0.00 74 1015.6
20260904141624 82 168 4.0 6.0 0.00 0.00 0.00 74 1015.4
20260904141120 82 165 3.0 3.0 0.00 0.00 0.00 75 1015.1
20260904140616 81 165 2.0 2.0 0.00 0.00 0.00 76 1015.4
20260904140109 81 165 0.0 2.0 0.00 0.00 0.00 75 1015.2
20260904135608 80 165 1.0 5.0 0.00 0.00 0.00 77 1015.2
20260904135105 80 165 0.0 0.0 0.00 0.00 0.00 79 1015.3
20260904134601 79 165 0.0 3.0 0.00 0.00 0.00 79 1015.2
20260904134054 79 165 1.0 2.0 0.00 0.00 0.00 81 1015.1
20260904133549 78 165 0.0 0.0 0.00 0.00 0.00 82 1015.2
20260904133045 77 165 0.0 0.0 0.00 0.00 0.00 83 1015.2
20260904132539 77 165 0.0 1.0 0.00 0.00 0.00 85 1015.2
20260904132039 76 165 0.0 0.0 0.00 0.00 0.00 86 1015.4
20260904131539 75 165 0.0 0.0 0.00 0.00 0.00 86 1015.2
20260904131034 75 165 0.0 0.0 0.00 0.00 0.00 86 1015.1
20260904130534 75 165 0.0 0.0 0.00 0.00 0.00 87 1015.1
20260904130023 75 165 0.0 0.0 0.00 0.00 0.00 87 1015.1
20260904125520 75 165 0.0 0.0 0.00 0.00 0.00 87 1014.9
20260904125015 75 165 0.0 0.0 0.00 0.00 0.00 87 1015.0
20260904124510 75 165 0.0 0.0 0.00 0.00 0.00 87 1014.9
20260904124006 74 165 0.0 0.0 0.00 0.00 0.00 87 1014.7
20260904123505 74 165 0.0 0.0 0.00 0.00 0.00 88 1014.9
20260904123001 74 165 0.0 0.0 0.00 0.00 0.00 88 1014.6
20260904122501 73 165 0.0 0.0 0.00 0.00 0.00 88 1014.5
20260904121955 73 165 0.0 0.0 0.00 0.00 0.00 89 1014.6
20260904121452 73 165 0.0 0.0 0.00 0.00 0.00 89 1014.4
20260904120948 73 165 0.0 0.0 0.00 0.00 0.00 90 1014.7
20260904120443 73 165 0.0 0.0 0.00 0.00 0.00 90 1014.4
20260904115938 73 165 0.0 0.0 0.00 0.00 0.00 90 1014.6
20260904115434 73 165 0.0 0.0 0.00 0.00 0.00 89 1014.4
20260904114934 73 165 0.0 0.0 0.00 0.00 0.00 89 1014.3
20260904114433 73 165 0.0 0.0 0.00 0.00 0.00 89 1014.2
20260904113930 73 165 0.0 0.0 0.00 0.00 0.00 89 1014.3
20260904113428 73 165 0.0 0.0 0.00 0.00 0.00 89 1014.1
20260904112928 73 165 0.0 0.0 0.00 0.00 0.00 89 1014.3
20260904112424 73 165 0.0 0.0 0.00 0.00 0.00 88 1014.1
20260904111919 73 165 0.0 0.0 0.00 0.00 0.00 88 1014.4
20260904111414 73 165 0.0 0.0 0.00 0.00 0.00 88 1014.2
20260904110911 73 165 0.0 0.0 0.00 0.00 0.00 88 1014.2
20260904110409 73 165 0.0 0.0 0.00 0.00 0.00 88 1014.2
20260904105904 73 165 0.0 0.0 0.00 0.00 0.00 89 1013.9
20260904105359 73 165 0.0 0.0 0.00 0.00 0.00 89 1014.0
20260904104855 73 165 0.0 0.0 0.00 0.00 0.00 89 1013.8
20260904104349 73 165 0.0 0.0 0.00 0.00 0.00 89 1013.9
20260904103847 73 165 0.0 0.0 0.00 0.00 0.00 90 1013.9
20260904103346 73 165 0.0 0.0 0.00 0.00 0.00 90 1014.0
20260904102842 73 165 0.0 0.0 0.00 0.00 0.00 91 1013.7
20260904102337 72 165 0.0 0.0 0.00 0.00 0.00 92 1013.8
20260904101833 72 165 0.0 1.0 0.00 0.00 0.00 93 1013.8
20260904101330 72 165 0.0 0.0 0.00 0.00 0.00 94 1013.9
20260904100825 72 165 0.0 0.0 0.00 0.00 0.00 94 1013.7
20260904100321 72 165 0.0 0.0 0.00 0.00 0.00 94 1013.6
20260904095816 72 165 0.0 0.0 0.00 0.00 0.00 94 1013.6
20260904095310 72 165 0.0 0.0 0.00 0.00 0.00 94 1013.6
20260904094805 72 165 0.0 0.0 0.00 0.00 0.00 94 1013.4
20260904094300 72 165 0.0 0.0 0.00 0.00 0.00 94 1013.5
20260904093757 72 165 0.0 0.0 0.00 0.00 0.00 94 1013.6
20260904093251 72 165 0.0 0.0 0.00 0.00 0.00 94 1013.3
20260904092747 72 165 0.0 0.0 0.00 0.00 0.00 94 1013.4
20260904092243 72 165 0.0 0.0 0.00 0.00 0.00 94 1013.2
20260904091738 73 165 0.0 0.0 0.00 0.00 0.00 93 1013.4
20260904091233 73 165 0.0 0.0 0.00 0.00 0.00 93 1013.4
20260904090729 73 165 0.0 0.0 0.00 0.00 0.00 93 1013.2
20260904090225 73 165 0.0 0.0 0.00 0.00 0.00 93 1013.0
20260904085719 73 165 0.0 0.0 0.00 0.00 0.00 93 1013.2
20260904085214 73 165 0.0 0.0 0.00 0.00 0.00 93 1013.1
20260904084709 73 165 0.0 0.0 0.00 0.00 0.00 92 1012.9
20260904084204 74 165 0.0 0.0 0.00 0.00 0.00 92 1013.1
20260904083701 74 165 0.0 0.0 0.00 0.00 0.00 91 1013.2
20260904083157 74 165 0.0 0.0 0.00 0.00 0.00 91 1013.1
20260904082651 74 165 0.0 0.0 0.00 0.00 0.00 91 1013.3
20260904082147 74 165 0.0 0.0 0.00 0.00 0.00 90 1013.0
20260904081642 74 165 0.0 0.0 0.00 0.00 0.00 90 1012.9
20260904081137 74 165 0.0 0.0 0.00 0.00 0.00 90 1013.1
20260904080633 74 165 0.0 0.0 0.00 0.00 0.00 90 1013.1
20260904080129 74 165 0.0 0.0 0.00 0.00 0.00 89 1012.9
20260904075625 74 165 0.0 0.0 0.00 0.00 0.00 89 1012.9
20260904075124 74 165 0.0 0.0 0.00 0.00 0.00 89 1012.9
20260904074618 74 165 0.0 0.0 0.00 0.00 0.00 89 1012.9
20260904074113 75 165 0.0 0.0 0.00 0.00 0.00 89 1012.9
20260904073608 74 165 0.0 0.0 0.00 0.00 0.00 89 1013.0
20260904073104 74 165 0.0 0.0 0.00 0.00 0.00 89 1012.9
20260904072600 75 165 0.0 0.0 0.00 0.00 0.00 89 1013.1
20260904072055 75 165 0.0 0.0 0.00 0.00 0.00 88 1012.8
20260904071550 75 165 0.0 0.0 0.00 0.00 0.00 88 1012.9
20260904071045 75 165 0.0 0.0 0.00 0.00 0.00 88 1012.6
20260904070544 75 165 0.0 0.0 0.00 0.00 0.00 88 1012.9
20260904070039 75 165 0.0 0.0 0.00 0.00 0.00 88 1012.7
20260904065534 75 165 0.0 0.0 0.00 0.00 0.00 88 1013.0
20260904065030 75 165 0.0 0.0 0.00 0.00 0.00 87 1013.0
20260904064526 75 165 0.0 0.0 0.00 0.00 0.00 87 1012.9
20260904064020 75 165 0.0 0.0 0.00 0.00 0.00 88 1012.6
20260904063518 75 165 0.0 0.0 0.00 0.00 0.00 88 1013.0
20260904063017 75 165 0.0 0.0 0.00 0.00 0.00 88 1013.0
20260904062514 76 165 0.0 0.0 0.00 0.00 0.00 88 1013.0
20260904062009 76 165 0.0 0.0 0.00 0.00 0.00 88 1012.9
20260904061505 76 165 0.0 0.0 0.00 0.00 0.00 88 1013.0
20260904061001 76 165 0.0 0.0 0.00 0.00 0.00 87 1012.9
20260904060457 76 165 0.0 0.0 0.00 0.00 0.00 87 1012.8
20260904055952 76 165 0.0 0.0 0.00 0.00 0.00 87 1013.0
20260904055448 76 165 0.0 0.0 0.00 0.00 0.00 87 1012.9
20260904054943 76 165 0.0 0.0 0.00 0.00 0.00 87 1013.1
20260904054439 76 165 0.0 0.0 0.00 0.00 0.00 87 1012.8
20260904053934 76 165 0.0 0.0 0.00 0.00 0.00 87 1012.7
20260904053433 76 165 0.0 0.0 0.00 0.00 0.00 87 1012.6
20260904052929 76 165 0.0 0.0 0.00 0.00 0.00 87 1012.6
20260904052426 76 165 0.0 0.0 0.00 0.00 0.00 87 1012.9
20260904051921 76 165 0.0 0.0 0.00 0.00 0.00 87 1012.5
20260904051418 76 165 0.0 0.0 0.00 0.00 0.00 86 1012.4
20260904050912 77 165 0.0 0.0 0.00 0.00 0.00 86 1012.5
20260904050409 77 165 0.0 0.0 0.00 0.00 0.00 86 1012.4
20260904045908 77 165 0.0 0.0 0.00 0.00 0.00 86 1012.3
20260904045403 77 165 0.0 0.0 0.00 0.00 0.00 86 1012.2
20260904044903 77 165 0.0 0.0 0.00 0.00 0.00 86 1012.4
20260904044400 77 165 0.0 0.0 0.00 0.00 0.00 86 1012.3
20260904043855 78 165 0.0 0.0 0.00 0.00 0.00 85 1012.4
20260904043352 78 165 0.0 0.0 0.00 0.00 0.00 84 1012.4
20260904042848 78 165 0.0 0.0 0.00 0.00 0.00 84 1012.6
20260904042343 78 165 0.0 0.0 0.00 0.00 0.00 83 1012.6
20260904041838 78 165 0.0 0.0 0.00 0.00 0.00 82 1012.5
20260904041334 78 165 0.0 0.0 0.00 0.00 0.00 81 1012.5
20260904040830 78 165 0.0 0.0 0.00 0.00 0.00 80 1012.5
20260904040325 79 165 0.0 0.0 0.00 0.00 0.00 80 1012.6
20260904035821 79 165 0.0 0.0 0.00 0.00 0.00 80 1012.4
20260904035317 79 165 0.0 0.0 0.00 0.00 0.00 79 1012.4
20260904034816 79 165 0.0 0.0 0.00 0.00 0.00 78 1012.5
20260904034312 79 165 0.0 0.0 0.00 0.00 0.00 78 1012.6
20260904033807 80 165 0.0 0.0 0.00 0.00 0.00 78 1012.6
20260904033304 80 165 0.0 0.0 0.00 0.00 0.00 77 1012.5
20260904032759 80 165 0.0 0.0 0.00 0.00 0.00 76 1012.6
20260904032258 80 165 0.0 0.0 0.00 0.00 0.00 76 1012.6
20260904031753 80 165 0.0 0.0 0.00 0.00 0.00 76 1012.4
20260904031248 81 165 0.0 0.0 0.00 0.00 0.00 75 1012.5
20260904030738 81 165 0.0 0.0 0.00 0.00 0.00 75 1012.4
20260904030234 81 165 0.0 0.0 0.00 0.00 0.00 75 1012.4
20260904025730 81 165 0.0 0.0 0.00 0.00 0.00 75 1012.4
20260904025224 81 165 0.0 0.0 0.00 0.00 0.00 75 1012.5
20260904024714 82 165 0.0 0.0 0.00 0.00 0.00 74 1012.6
20260904024209 82 165 0.0 0.0 0.00 0.00 0.00 74 1012.2
20260904023705 82 165 0.0 0.0 0.00 0.00 0.00 71 1012.5
20260904023156 83 165 0.0 0.0 0.00 0.00 0.00 69 1012.3
20260904022654 84 165 0.0 0.0 0.00 0.00 0.00 68 1012.2
20260904022152 84 165 0.0 0.0 0.00 0.00 0.00 67 1012.3
20260904021648 84 165 0.0 0.0 0.00 0.00 0.00 66 1012.1
20260904021142 85 165 0.0 0.0 0.00 0.00 0.00 65 1012.0
20260904020639 85 165 0.0 0.0 0.00 0.00 0.00 63 1012.0
20260904020127 86 165 0.0 0.0 0.00 0.00 0.00 63 1012.2
20260904015627 86 165 0.0 0.0 0.00 0.00 0.00 62 1011.9
20260904015125 86 165 0.0 0.0 0.00 0.00 0.00 61 1011.6
20260904014625 87 165 0.0 0.0 0.00 0.00 0.00 60 1011.7
20260904014120 87 165 0.0 0.0 0.00 0.00 0.00 59 1011.7
20260904013617 87 165 0.0 1.0 0.00 0.00 0.00 59 1011.7
20260904013113 87 165 0.0 0.0 0.00 0.00 0.00 58 1011.3
20260904012608 87 165 0.0 0.0 0.00 0.00 0.00 58 1011.5
20260904012108 88 165 0.0 0.0 0.00 0.00 0.00 57 1011.1
20260904011607 89 165 0.0 0.0 0.00 0.00 0.00 56 1011.1
20260904011102 89 165 0.0 0.0 0.00 0.00 0.00 55 1011.2
20260904010558 90 165 0.0 0.0 0.00 0.00 0.00 53 1011.3
20260904010054 91 165 1.0 2.0 0.00 0.00 0.00 53 1011.1
20260904005554 91 166 0.0 1.0 0.00 0.00 0.00 52 1011.1
20260904005049 91 166 0.0 2.0 0.00 0.00 0.00 51 1011.0
20260904004545 92 166 0.0 1.0 0.00 0.00 0.00 51 1011.1
20260904004039 92 166 0.0 1.0 0.00 0.00 0.00 51 1010.9
20260904003536 93 166 0.0 0.0 0.00 0.00 0.00 49 1011.1
20260904003031 93 166 0.0 2.0 0.00 0.00 0.00 50 1011.2
20260904002527 93 167 0.0 2.0 0.00 0.00 0.00 49 1011.1
20260904002026 94 166 0.0 3.0 0.00 0.00 0.00 48 1011.1
20260904001522 94 166 0.0 3.0 0.00 0.00 0.00 48 1011.2
20260904001021 94 167 1.0 2.0 0.00 0.00 0.00 47 1011.0
20260904000521 94 167 2.0 3.0 0.00 0.00 0.00 47 1011.3
20260904000017 95 167 1.0 2.0 0.00 0.00 0.00 46 1011.1
20260903235512 95 166 1.0 2.0 0.00 0.00 0.00 46 1011.2
20260903235008 95 169 2.0 3.0 0.00 0.00 0.00 46 1011.2
20260903234503 95 176 2.0 5.0 0.00 0.00 0.00 45 1011.2
20260903233958 96 180 5.0 7.0 0.00 0.00 0.00 44 1011.2
20260903233454 96 172 2.0 5.0 0.00 0.00 0.00 44 1011.3
20260903232949 95 170 1.0 6.0 0.00 0.00 0.00 45 1011.0
20260903232445 96 162 4.0 8.0 0.00 0.00 0.00 45 1011.1
20260903231944 96 182 0.0 6.0 0.00 0.00 0.00 45 1010.9
20260903231439 96 171 3.0 6.0 0.00 0.00 0.00 45 1011.2
20260903230933 96 170 0.0 3.0 0.00 0.00 0.00 45 1010.9
20260903230429 96 170 5.0 6.0 0.00 0.00 0.00 44 1010.7
20260903225926 96 171 4.0 5.0 0.00 0.00 0.00 44 1011.0
20260903225421 96 166 4.0 7.0 0.00 0.00 0.00 44 1011.3
20260903224917 97 172 5.0 8.0 0.00 0.00 0.00 42 1011.1
20260903224413 96 170 2.0 5.0 0.00 0.00 0.00 44 1011.1
20260903223909 97 163 3.0 5.0 0.00 0.00 0.00 43 1011.2
20260903223408 97 171 3.0 3.0 0.00 0.00 0.00 44 1011.1
20260903222907 97 171 0.0 5.0 0.00 0.00 0.00 43 1011.1
20260903222403 96 171 4.0 6.0 0.00 0.00 0.00 42 1011.3
20260903221857 97 169 2.0 5.0 0.00 0.00 0.00 43 1011.2
20260903221355 96 171 3.0 5.0 0.00 0.00 0.00 43 1011.3
20260903220854 96 165 2.0 5.0 0.00 0.00 0.00 44 1011.1
20260903220348 96 164 2.0 13.0 0.00 0.00 0.00 43 1011.4
20260903215847 96 164 2.0 5.0 0.00 0.00 0.00 43 1011.4
20260903215343 97 162 3.0 6.0 0.00 0.00 0.00 44 1011.2
20260903214842 96 166 2.0 5.0 0.00 0.00 0.00 44 1011.5
20260903214338 96 166 3.0 3.0 0.00 0.00 0.00 43 1011.5